• In France
  • List of Countries
  • For 7 days
  • Water Temperature
  • Satellite Maps
  • Weather Map
  • Weather Widgets
  • user-avatar
    Login

    Hourly Weather Phenian

    Today, 21 February, Wednesday

    Time Temperature Precipitation Wind Pressure Humidity
    00:00 -5°C° 0 mm 3 mps 768 mmHg 35%
    01:00 -6°C° 0 mm 3 mps 768 mmHg 35%
    02:00 -5°C° 0 mm 2 mps 767 mmHg 35%
    03:00 -5°C° 0 mm 2 mps 768 mmHg 35%
    04:00 -6°C° 0 mm 2 mps 768 mmHg 36%
    05:00 -6°C° 0 mm 2 mps 768 mmHg 37%
    06:00 -5°C° 0 mm 2 mps 768 mmHg 34%
    07:00 -3°C° 0 mm 1 mps 768 mmHg 32%
    08:00 -3°C° 0 mm 1 mps 768 mmHg 30%
    09:00 -3°C° 0 mm 2 mps 768 mmHg 27%
    10:00 -2°C° 0 mm 2 mps 768 mmHg 24%
    11:00 -1°C° 0 mm 3 mps 767 mmHg 20%
    12:00 -1°C° 0 mm 3 mps 767 mmHg 22%
    13:00 -1°C° 0 mm 4 mps 766 mmHg 24%
    14:00 -1°C° 0 mm 4 mps 766 mmHg 25%
    15:00 -1°C° 0 mm 4 mps 765 mmHg 30%
    16:00 -1°C° 0 mm 3 mps 765 mmHg 35%
    17:00 -2°C° 0 mm 3 mps 765 mmHg 40%
    18:00 -2°C° 0 mm 2 mps 765 mmHg 43%
    19:00 -3°C° 0 mm 2 mps 765 mmHg 46%
    20:00 -1°C° 0 mm 1 mps 765 mmHg 48%
    21:00 -1°C° 0 mm 1 mps 765 mmHg 50%
    22:00 -1°C° 0 mm 1 mps 766 mmHg 51%
    23:00 -1°C° 0 mm 1 mps 766 mmHg 52%

    Tomorrow, 22 February, Thursday

    Time Temperature Precipitation Wind Pressure Humidity
    00:00 -1°C° 0 mm 1 mps 765 mmHg 55%
    01:00 -2°C° 0 mm 1 mps 765 mmHg 58%
    02:00 -2°C° 0 mm 1 mps 765 mmHg 61%
    03:00 -4°C° 0 mm 2 mps 765 mmHg 62%
    04:00 -4°C° 0 mm 2 mps 764 mmHg 63%
    05:00 -4°C° 0 mm 2 mps 764 mmHg 64%
    06:00 -3°C° 0 mm 2 mps 764 mmHg 62%
    07:00 -3°C° 0 mm 2 mps 763 mmHg 61%
    08:00 -2°C° 0 mm 3 mps 763 mmHg 59%
    09:00 -1°C° 0.2 mm 4 mps 763 mmHg 56%
    10:00 +1°C° 0.2 mm 5 mps 762 mmHg 53%
    11:00 +3°C° 0.2 mm 7 mps 762 mmHg 50%
    12:00 +3°C° 0.2 mm 7 mps 761 mmHg 52%
    13:00 +3°C° 0.2 mm 7 mps 760 mmHg 54%
    14:00 +2°C° 0.2 mm 8 mps 759 mmHg 56%
    15:00 +2°C° 0.7 mm 6 mps 759 mmHg 67%
    16:00 +1°C° 0.7 mm 5 mps 759 mmHg 78%
    17:00 0°C° 0.7 mm 4 mps 758 mmHg 89%
    18:00 -1°C° 0 mm 4 mps 759 mmHg 86%
    19:00 -1°C° 0 mm 3 mps 759 mmHg 84%
    20:00 -2°C° 0 mm 3 mps 760 mmHg 81%
    21:00 -2°C° 0 mm 3 mps 760 mmHg 78%
    22:00 -4°C° 0 mm 3 mps 761 mmHg 74%
    23:00 -4°C° 0 mm 3 mps 761 mmHg 71%

    Day after tomorrow, 23 February, Friday

    Time Temperature Precipitation Wind Pressure Humidity
    00:00 -4°C° 0 mm 2 mps 762 mmHg 69%
    01:00 -4°C° 0 mm 2 mps 762 mmHg 68%
    02:00 -5°C° 0 mm 2 mps 762 mmHg 66%
    03:00 -3°C° 0 mm 1 mps 762 mmHg 64%
    04:00 -3°C° 0 mm 1 mps 762 mmHg 62%
    05:00 -3°C° 0 mm 1 mps 762 mmHg 60%
    06:00 -2°C° 0 mm 1 mps 763 mmHg 57%
    07:00 -1°C° 0 mm 1 mps 763 mmHg 54%
    08:00 -1°C° 0 mm 1 mps 763 mmHg 51%
    09:00 -1°C° 0 mm 2 mps 763 mmHg 46%
    10:00 0°C° 0 mm 3 mps 763 mmHg 41%
    11:00 +1°C° 0 mm 4 mps 763 mmHg 36%
    12:00 +2°C° 0 mm 5 mps 763 mmHg 39%
    13:00 +2°C° 0 mm 6 mps 762 mmHg 42%
    14:00 +3°C° 0 mm 7 mps 762 mmHg 45%
    15:00 +2°C° 0 mm 6 mps 763 mmHg 46%
    16:00 -1°C° 0 mm 6 mps 763 mmHg 47%
    17:00 -1°C° 0 mm 5 mps 763 mmHg 49%
    18:00 -2°C° 0 mm 5 mps 765 mmHg 47%
    19:00 -4°C° 0 mm 5 mps 766 mmHg 46%
    20:00 -5°C° 0 mm 5 mps 767 mmHg 44%
    21:00 -5°C° 0 mm 5 mps 767 mmHg 42%
    22:00 -6°C° 0 mm 5 mps 768 mmHg 39%
    23:00 -7°C° 0 mm 5 mps 769 mmHg 37%

    24 February, Saturday

    Time Temperature Precipitation Wind Pressure Humidity
    00:00 -7°C° 0 mm 5 mps 769 mmHg 39%
    01:00 -8°C° 0 mm 5 mps 770 mmHg 41%
    02:00 -8°C° 0 mm 5 mps 771 mmHg 43%
    03:00 -8°C° 0 mm 5 mps 771 mmHg 43%
    04:00 -9°C° 0 mm 4 mps 771 mmHg 44%
    05:00 -9°C° 0 mm 4 mps 772 mmHg 45%
    06:00 -9°C° 0 mm 4 mps 772 mmHg 42%
    07:00 -9°C° 0 mm 4 mps 772 mmHg 39%
    08:00 -7°C° 0 mm 3 mps 773 mmHg 36%
    09:00 -6°C° 0 mm 3 mps 773 mmHg 32%
    10:00 -5°C° 0 mm 3 mps 773 mmHg 28%
    11:00 -4°C° 0 mm 3 mps 773 mmHg 24%
    12:00 -4°C° 0 mm 4 mps 772 mmHg 23%
    13:00 -3°C° 0 mm 4 mps 772 mmHg 23%
    14:00 -3°C° 0 mm 4 mps 771 mmHg 22%
    15:00 -2°C° 0 mm 3 mps 771 mmHg 25%
    16:00 -4°C° 0 mm 3 mps 771 mmHg 27%
    17:00 -4°C° 0 mm 3 mps 771 mmHg 30%
    18:00 -4°C° 0 mm 2 mps 771 mmHg 32%
    19:00 -4°C° 0 mm 2 mps 771 mmHg 35%
    20:00 -5°C° 0 mm 2 mps 772 mmHg 37%
    21:00 -5°C° 0 mm 2 mps 771 mmHg 37%
    22:00 -5°C° 0 mm 2 mps 771 mmHg 37%
    23:00 -5°C° 0 mm 2 mps 771 mmHg 37%

    25 February, Sunday

    Time Temperature Precipitation Wind Pressure Humidity
    00:00 -6°C° 0 mm 2 mps 771 mmHg 37%
    01:00 -4°C° 0 mm 1 mps 771 mmHg 38%
    02:00 -4°C° 0 mm 1 mps 771 mmHg 38%
    03:00 -4°C° 0 mm 1 mps 771 mmHg 39%
    04:00 -6°C° 0 mm 1 mps 771 mmHg 39%
    05:00 -6°C° 0 mm 1 mps 771 mmHg 40%
    06:00 -4°C° 0 mm 1 mps 771 mmHg 37%
    07:00 -4°C° 0 mm 1 mps 771 mmHg 35%
    08:00 -3°C° 0 mm 1 mps 772 mmHg 33%
    09:00 -2°C° 0 mm 1 mps 771 mmHg 29%
    10:00 0°C° 0 mm 1 mps 771 mmHg 25%
    11:00 +1°C° 0 mm 1 mps 771 mmHg 21%
    12:00 +1°C° 0 mm 2 mps 770 mmHg 20%
    13:00 +1°C° 0 mm 2 mps 770 mmHg 20%
    14:00 +2°C° 0 mm 2 mps 769 mmHg 19%
    15:00 +1°C° 0 mm 2 mps 769 mmHg 23%
    16:00 +2°C° 0 mm 1 mps 769 mmHg 28%
    17:00 +1°C° 0 mm 1 mps 769 mmHg 32%
    18:00 0°C° 0 mm 1 mps 769 mmHg 33%
    19:00 0°C° 0 mm 1 mps 769 mmHg 34%
    20:00 -2°C° 0 mm 0 mps 769 mmHg 35%
    21:00 -2°C° 0 mm 0 mps 769 mmHg 34%
    22:00 -2°C° 0 mm 0 mps 769 mmHg 34%
    23:00 -2°C° 0 mm 0 mps 769 mmHg 33%

    26 February, Monday

    Time Temperature Precipitation Wind Pressure Humidity
    00:00 -2°C° 0 mm 0 mps 769 mmHg 33%
    01:00 -2°C° 0 mm 0 mps 769 mmHg 33%
    02:00 -1°C° 0 mm 1 mps 769 mmHg 32%
    03:00 -2°C° 0 mm 1 mps 769 mmHg 33%
    04:00 -2°C° 0 mm 1 mps 768 mmHg 33%
    05:00 -2°C° 0 mm 1 mps 768 mmHg 33%
    06:00 -1°C° 0 mm 1 mps 768 mmHg 32%
    07:00 0°C° 0 mm 1 mps 768 mmHg 30%
    08:00 +1°C° 0 mm 1 mps 768 mmHg 29%
    09:00 +1°C° 0 mm 2 mps 768 mmHg 29%
    10:00 +3°C° 0 mm 2 mps 767 mmHg 28%
    11:00 +4°C° 0 mm 2 mps 767 mmHg 28%
    12:00 +4°C° 0 mm 3 mps 766 mmHg 30%
    13:00 +5°C° 0 mm 3 mps 765 mmHg 33%
    14:00 +5°C° 0 mm 4 mps 764 mmHg 35%
    15:00 +4°C° 0 mm 3 mps 764 mmHg 42%
    16:00 +3°C° 0 mm 3 mps 764 mmHg 49%
    17:00 +2°C° 0 mm 3 mps 764 mmHg 56%
    18:00 +2°C° 0.2 mm 3 mps 763 mmHg 61%
    19:00 +1°C° 0.2 mm 3 mps 763 mmHg 65%
    20:00 +1°C° 0.2 mm 3 mps 763 mmHg 70%
    21:00 +1°C° 0.7 mm 3 mps 763 mmHg 75%
    22:00 +1°C° 0.7 mm 3 mps 762 mmHg 80%
    23:00 +1°C° 0.7 mm 3 mps 762 mmHg 84%
    Show more